This demonstration page uses our WeatherBlox Daily Observations layout. Learn more.

Left ArrowRight Arrow

39.51506, -84.39828

Hourly Observations for April 17, 2020

Temp ( °F °C ) Dew Point ( °F °C ) Humidity (%) Winds ( mph kmh ) Pressure ( in mb ) Visibility ( mi km ) Precip ( " mm )
12:15 am 00:15 Cloudy 40 4.7 35 1.7 81 81 N N/A 30.34 1028 N/A N/A
12:35 am 00:35 Cloudy 41 5 34 1.2 77 77 SSW 3 6 30.33 1027 N/A N/A
12:55 am 00:55 Cloudy 42 5.5 31 -0.5 66 66 SSW 3 6 30.33 1027 N/A N/A
1:15 am 01:15 Cloudy 42 5.4 32 undefined 68 68 SSW 3 6 30.32 1027 N/A N/A
1:35 am 01:35 Cloudy 40 4.7 34 1.2 78 78 W 3 6 30.31 1027 N/A N/A
1:55 am 01:55 Cloudy 41 5.1 33 0.4 72 72 SW 3 6 30.31 1026 N/A N/A
2:15 am 02:15 Cloudy 41 5.1 33 0.6 73 73 NNE 6 9 30.29 1026 N/A N/A
2:35 am 02:35 Cloudy 41 5.2 32 0.2 70 70 NNE 6 9 30.28 1025 N/A N/A
2:55 am 02:55 Cloudy 41 5.2 33 0.4 71 71 NE 3 6 30.27 1025 N/A N/A
3:15 am 03:15 Cloudy 42 5.3 33 0.4 71 71 NE 5 7 30.25 1024 N/A N/A
3:35 am 03:35 Cloudy 42 5.5 33 0.3 69 69 ENE 3 6 30.24 1024 N/A N/A
3:55 am 03:55 Cloudy 43 5.9 29 -1.8 58 58 SE 6 9 30.24 1024 N/A N/A
4:15 am 04:15 Cloudy 43 5.9 28 -2 57 57 ENE 5 7 30.23 1024 N/A N/A
4:35 am 04:35 Cloudy 42 5.6 30 -0.9 63 63 ENE 8 13 30.22 1023 N/A N/A
4:55 am 04:55 Cloudy 42 5.7 31 -0.7 64 64 NE 7 11 30.22 1023 N/A N/A
5:15 am 05:15 Cloudy 41 5.2 32 -0.2 68 68 NE 9 15 30.20 1023 N/A N/A
5:35 am 05:35 Cloudy 42 5.5 30 -0.9 64 64 ENE 6 9 30.20 1023 N/A N/A
5:55 am 05:55 Cloudy 42 5.6 29 -1.7 60 60 ESE 5 7 30.19 1022 N/A N/A
6:15 am 06:15 Cloudy 42 5.8 28 -2.4 56 56 E 7 11 30.20 1023 N/A N/A
6:35 am 06:35 Cloudy 42 5.8 26 -3.3 52 52 E 7 11 30.20 1023 N/A N/A
6:55 am 06:55 Cloudy 42 5.7 25 -3.9 50 50 E 7 11 30.19 1022 N/A N/A
7:15 am 07:15 Cloudy 42 5.8 25 -3.8 50 50 E 6 9 30.19 1022 N/A N/A
7:35 am 07:35 Cloudy 42 5.8 26 -3.6 51 51 E 6 9 30.18 1022 N/A N/A
7:55 am 07:55 Cloudy 42 5.8 26 -3.2 53 53 ESE 7 11 30.18 1022 N/A N/A
8:15 am 08:15 Cloudy 43 6 26 -3.3 52 52 ESE 6 9 30.17 1022 N/A N/A
8:35 am 08:35 Cloudy 43 6.2 26 -3.4 51 51 ESE 6 9 30.16 1021 N/A N/A
8:55 am 08:55 Cloudy 44 6.4 26 -3.3 50 50 ESE 7 11 30.16 1021 N/A N/A
9:15 am 09:15 Cloudy 44 6.7 26 -3.1 50 50 SE 8 13 30.15 1021 N/A N/A
9:35 am 09:35 Cloudy 45 7 26 -3.1 49 49 ESE 6 9 30.13 1020 N/A N/A
9:55 am 09:55 Cloudy 45 7.3 28 -2.4 51 51 SE 7 11 30.13 1020 N/A N/A
10:15 am 10:15 Cloudy 45 7.2 29 -1.5 54 54 ESE 10 17 30.10 1019 N/A N/A
10:35 am 10:35 Cloudy 45 7.3 31 -0.5 58 58 SE 6 9 30.11 1019 N/A N/A
10:55 am 10:55 Cloudy 45 7.4 33 0.6 62 62 ESE 7 11 30.09 1019 N/A N/A
11:15 am 11:15 Cloudy 45 7.2 34 1.3 66 66 ESE 6 9 30.07 1018 N/A N/A
11:35 am 11:35 Cloudy 45 7.3 36 2 69 69 SE 7 11 30.05 1017 N/A N/A
11:55 am 11:55 Cloudy 45 7.3 37 2.6 72 72 N N/A 30.05 1017 N/A N/A
12:15 pm 12:15 Cloudy 45 7.4 38 3.6 77 77 N N/A 30.04 1017 N/A N/A
12:35 pm 12:35 Cloudy 46 7.7 40 4.7 82 82 SSW 7 11 30.02 1017 N/A N/A
12:55 pm 12:55 Cloudy 46 7.8 41 5.1 83 83 S 6 9 30.00 1016 N/A N/A
1:15 pm 13:15 Cloudy 47 8.1 41 5.2 82 82 S 7 11 29.98 1015 N/A N/A
1:35 pm 13:35 Cloudy 48 8.7 43 6 83 83 SSW 9 15 29.97 1015 N/A N/A
1:55 pm 13:55 undefined 49 9.2 45 7.2 87 87 SSW 14 22 29.96 1015 N/A N/A
2:15 pm 14:15 undefined 48 9.1 46 7.5 90 90 SW 14 22 29.95 1014 N/A N/A
2:35 pm 14:35 undefined 48 9 46 7.9 93 93 SW 12 19 29.95 1014 N/A N/A
2:55 pm 14:55 Cloudy 49 9.3 47 8.1 92 92 SW 14 22 29.94 1014 N/A N/A
3:15 pm 15:15 Cloudy 48 9.1 46 8 93 93 SW 12 19 29.93 1014 N/A N/A
3:35 pm 15:35 Cloudy 49 9.2 47 8.2 94 94 SW 10 17 29.92 1013 N/A N/A
3:55 pm 15:55 Cloudy 49 9.3 47 8.4 94 94 SW 9 15 29.92 1013 N/A N/A
4:15 pm 16:15 Cloudy 49 9.3 47 8.4 94 94 SW 7 11 29.92 1013 N/A N/A
4:35 pm 16:35 Cloudy 49 9.5 48 8.7 95 95 SW 9 15 29.92 1013 N/A N/A
4:55 pm 16:55 undefined 49 9.5 48 8.9 96 96 SW 9 15 29.91 1013 N/A N/A
5:15 pm 17:15 undefined 49 9.6 48 9.1 97 97 SW 10 17 29.91 1013 N/A N/A
5:35 pm 17:35 Cloudy 49 9.7 48 9.1 96 96 SW 10 17 29.91 1013 N/A N/A
5:55 pm 17:55 undefined 50 9.9 48 9 94 94 WSW 13 20 29.91 1013 N/A N/A
6:15 pm 18:15 undefined 50 10 48 9 94 94 SW 15 24 29.91 1013 N/A N/A
6:35 pm 18:35 Cloudy 50 9.9 48 9 94 94 SW 12 19 29.91 1013 N/A N/A
6:55 pm 18:55 undefined 50 9.8 48 9.1 95 95 SW 9 15 29.91 1013 N/A N/A
7:15 pm 19:15 undefined 49 9.7 48 9 95 95 WSW 7 11 29.90 1013 N/A N/A
7:35 pm 19:35 undefined 49 9.7 48 9 95 95 SW 7 11 29.90 1013 N/A N/A
7:55 pm 19:55 Cloudy 49 9.6 48 8.9 95 95 WSW 8 13 29.89 1012 N/A N/A
8:15 pm 20:15 Cloudy 49 9.6 48 8.8 95 95 W 12 19 29.90 1013 N/A N/A
8:35 pm 20:35 undefined 48 8.7 46 7.8 94 94 WNW 7 11 29.91 1013 N/A N/A
8:55 pm 20:55 Cloudy 47 8.3 46 7.6 95 95 WNW 7 11 29.91 1013 N/A N/A
9:15 pm 21:15 undefined 47 8.1 45 7.3 95 95 WNW 8 13 29.92 1013 N/A N/A
9:35 pm 21:35 Cloudy 45 7.4 44 6.5 94 94 NW 13 20 29.94 1014 N/A N/A
9:55 pm 21:55 undefined 44 6.8 43 5.9 94 94 NW 14 22 29.95 1014 N/A N/A
10:15 pm 22:15 Cloudy 44 6.4 42 5.4 93 93 NW 13 20 29.96 1014 N/A N/A
10:35 pm 22:35 Cloudy 43 6.3 41 5 91 91 NNW 13 20 29.96 1015 N/A N/A
10:55 pm 22:55 Cloudy 42 5.6 40 4.4 92 92 NNW 13 20 29.97 1015 N/A N/A
11:15 pm 23:15 Cloudy 41 4.8 38 3.5 91 91 NW 12 19 29.97 1015 N/A N/A
11:35 pm 23:35 Cloudy 40 4.3 37 2.8 90 90 NNW 10 17 29.98 1015 N/A N/A
11:55 pm 23:55 Cloudy 39 4.1 36 2.4 89 89 NNW 13 20 29.99 1016 N/A N/A

Powered by AerisWeather